Hourly Data Report for October 15, 2019

All times are specified in Local Standard Time (LST). Add 1 hour to adjust for Daylight Saving Time where and when it is observed.

EUREKA CLIMATE
NUNAVUT
Current Station Operator: ECCC - MSC

79°59'21.000" N
85°56'02.000" W
10.00 m
2401199
71613
NEK

Download Data

Hourly Data (October 2019)
Hourly Data Report for October 15, 2019
TIME Temp Definition
°C
Dew Point Definition
°C
Rel Hum Definition
%
Wind Dir Definition
10's deg

Wind Spd Definition
km/h
Visibility Definition
km
Stn Press Definition
kPa
Hmdx Definition


Wind Chill Definition


Weather Definition


00:00 -10.3 -12.8 82 2 14   100.27   -17 LegendNANA
01:00 -10.9 -13.0 85 2 13   100.30   -17 LegendNANA
02:00 -9.1 -10.4 90 36 10   100.34   -14 LegendNANA
03:00 -7.4 -8.7 90 34 8   100.34   -11 LegendNANA
04:00 -5.9 -7.0 92 28 17   100.37   -12 LegendNANA
05:00 -6.0 -7.0 93 28 15   100.40   -12 LegendNANA
06:00 -6.0 -7.0 92 27 10   100.40   -10 LegendNANA
07:00 -7.5 -8.7 91 1 8   100.41   -12 LegendNANA
08:00 -6.8 -7.7 93   0   100.44     LegendNANA
09:00 -7.6 -8.1 96 11 11   100.45   -13 LegendNANA
10:00 -8.2 -8.9 95 10 7   100.45   -12 LegendNANA
11:00 -9.6 -10.3 95 9 9   100.45   -14 LegendNANA
12:00 -12.0 -12.8 94 4 10   100.46   -18 LegendNANA
13:00 -9.9 -10.4 96 7 7   100.46   -14 LegendNANA
14:00 -9.0 -9.5 96 27 1   100.50   -10 LegendNANA
15:00 -8.0 -9.4 90 13 17   100.52   -15 LegendNANA
16:00 -7.8 -9.7 86 12 16   100.52   -14 LegendNANA
17:00 -7.7 -9.2 89 12 20   100.54   -15 LegendNANA
18:00 -8.1 -9.8 87 18 27   100.56   -17 LegendNANA
19:00 -8.8 -10.4 88 19 27   100.58   -18 LegendNANA
20:00 -9.1 -10.6 89 18 27   100.60   -18 LegendNANA
21:00 -8.3 -10.0 88 18 35   100.58   -18 LegendNANA
22:00 -8.5 -10.0 89 16 30   100.58   -18 LegendNANA
23:00 -8.9 -10.2 90 18 38   100.57   -19 LegendNANA

Notes on Data Quality.

Legend

  • E = Estimated
  • M = Missing
  • NA = Not Available
Date modified: